Regional Weather Roundup
Issued by NWS

Home | Current Version | Previous Version | Text Only | Print | Product List | Glossary Off
Versions: 1 2 3 4 5 6 7 8 9 10 11 12 13 14 15 16 17 18 19 20 21 22 23 24 25 26 27 28 29 30 31 32 33 34 35 36 37 38 39 40 41 42 43 44 45 46 47 48 49 50

000
ASUS43 KTOP 011659
RWRKS

WEATHER ROUNDUP FOR KANSAS
NATIONAL WEATHER SERVICE GOODLAND KS
1100 AM CST WED MAR 01 2017

NOTE:  "FAIR" INDICATES FEW OR NO CLOUDS BELOW 12,000 FEET WITH NO
SIGNIFICANT WEATHER AND/OR OBSTRUCTIONS TO VISIBILITY.

KSZ001>006-013>018-027>032-041>047-011800-
NORTHWEST KANSAS

CITY           SKY/WX    TMP DP  RH WIND       PRES   REMARKS
GOODLAND       SUNNY     40   8  26 N36G45    30.23R WCI  27
HAYS           SUNNY     46  15  28 NW23G31   30.21R
HILL CITY      SUNNY     45  15  30 NW22G32   30.23R
RUSSELL        SUNNY     46  16  30 NW20G28   30.19R
$$

KSZ061>065-074>080-084>089-011800-
SOUTHWEST KANSAS

CITY           SKY/WX    TMP DP  RH WIND       PRES   REMARKS
DODGE CITY     SUNNY     47   8  20 NW25G36   30.24R
ELKHART          N/A     42   8  24 N14         N/A
GARDEN CITY    SUNNY     44   7  21 N29G40    30.27R
GREAT BEND     SUNNY     47  14  26 NW18G24   30.21R
LIBERAL        SUNNY     46  16  29 N26G32    30.30R
$$

KSZ066>073-081>083-090>101-011800-
SOUTHEAST KANSAS

CITY           SKY/WX    TMP DP  RH WIND       PRES   REMARKS
CHANUTE        SUNNY     48  27  44 NW15      30.16R
COFFEYVILLE    SUNNY     49  25  39 NW16      30.18R
HUTCHINSON     SUNNY     48  16  27 NW16      30.20R
NEWTON         SUNNY     46  21  37 NW16      30.19R
PARSONS        SUNNY     49  26  41 NW16G25   30.18R
WICHITA INTL   SUNNY     48  17  29 NW18      30.21R
WICHITA JABRA  SUNNY     47  19  33 NW16G25   30.20R
WINFIELD       SUNNY     50  20  30 NW18      30.23R
$$

KSZ007>012-019>026-033>040-048>060-102>105-011800-
NORTHEAST KANSAS

CITY           SKY/WX    TMP DP  RH WIND       PRES   REMARKS
CONCORDIA      SUNNY     43  25  49 NW21      30.16R
EMPORIA        SUNNY     45  23  42 NW15G24   30.15R
LAWRENCE       SUNNY     45  27  49 W17G25    30.11R
MANHATTAN      SUNNY     44  26  49 NW6G20    30.16R
OLATHE IND     SUNNY     43  27  53 W15G24    30.10R
OLATHE EXE     SUNNY     43  29  57 NW17G24   30.08R
SALINA         SUNNY     47  22  37 NW15      30.19R
TOPEKA BILLARD SUNNY     45  28  51 NW14G24   30.12R
TOPEKA FORBES  SUNNY     46  25  43 MISG      30.12R
$$



USA.gov is the U.S. government's official web portal to all federal, state and local government web resources and services.